EW4554 Weather Reports


Display with metric or nautical units.
time (UTC)temp
F
wind
direction
speed
MPH
gust
MPH
rain 1hr
in
rain 24hr
in
rain mn
in
humidity
%
barometer
mb
20210730143130 81 261 0.0 3.0 0.00 0.00 0.00 64 1016.3
20210730141709 81 221 0.0 0.0 0.00 0.00 0.00 62 1016.4
20210730140134 81 296 0.0 5.0 0.00 0.00 0.00 66 1016.4
20210730134556 80 226 0.0 2.0 0.00 0.00 0.00 64 1016.5
20210730133138 78 319 0.0 1.0 0.00 0.00 0.00 67 1016.7
20210730131654 79 88 0.0 0.0 0.00 0.00 0.00 68 1016.8
20210730130113 77 232 0.0 0.0 0.00 0.00 0.00 66 1017.0
20210730124623 79 239 0.0 5.0 0.00 0.00 0.00 67 1017.0
20210730123153 78 273 0.0 2.0 0.00 0.00 0.00 68 1017.1
20210730121551 78 344 1.0 8.0 0.00 0.00 0.00 66 1017.3
20210730120123 77 266 0.0 0.0 0.00 0.00 0.00 72 1017.2
20210730114615 77 306 0.0 5.0 0.00 0.00 0.00 70 1017.2
20210730113038 77 271 0.0 9.0 0.00 0.00 0.00 69 1017.3
20210730111653 76 39 0.0 0.0 0.00 0.00 0.00 72 1017.4
20210730110029 75 5 0.0 5.0 0.00 0.00 0.00 71 1017.4
20210730104600 75 306 0.0 3.0 0.00 0.00 0.00 73 1017.4
20210730103037 74 308 0.0 5.0 0.00 0.00 0.00 74 1017.4
20210730101521 73 323 0.0 1.0 0.00 0.00 0.00 75 1017.4
20210730100025 72 249 0.0 0.0 0.00 0.00 0.00 77 1017.4
20210730094527 71 246 0.0 1.0 0.00 0.00 0.00 79 1017.5
20210730093044 70 234 0.0 0.0 0.00 0.00 0.00 78 1017.6
20210730090034 68 180 0.0 1.0 0.00 0.00 0.00 81 1017.3
20210730084531 67 302 0.0 0.0 0.00 0.00 0.00 81 1017.3
20210730083005 67 258 0.0 1.0 0.00 0.00 0.00 81 1017.3
20210730081508 66 321 0.0 4.0 0.00 0.00 0.00 81 1017.2
20210730080220 65 36 0.0 4.0 0.00 0.00 0.00 82 1017.1
20210730074731 64 9 0.0 0.0 0.00 0.00 0.00 83 1017.1
20210730073143 63 360 0.0 3.0 0.00 0.00 0.00 84 1017.0
20210730071646 63 313 0.0 10.0 0.00 0.00 0.00 84 1016.9
20210730070121 63 273 0.0 6.0 0.00 0.00 0.00 85 1016.9
20210730064652 62 274 0.0 0.0 0.00 0.00 0.00 85 1016.8
20210730063147 62 217 0.0 5.0 0.00 0.00 0.00 85 1016.7
20210730061619 62 312 0.0 4.0 0.00 0.00 0.00 85 1016.5
20210730060116 62 325 1.0 6.0 0.00 0.00 0.00 85 1016.4
20210730054656 62 279 0.0 0.0 0.00 0.00 0.00 86 1016.2
20210730053113 62 257 0.0 8.0 0.00 0.00 0.00 85 1016.2
20210730051635 62 207 0.0 0.0 0.00 0.00 0.00 86 1016.1
20210730050120 62 150 0.0 8.0 0.00 0.00 0.00 86 1016.0
20210730044647 62 342 0.0 0.0 0.00 0.00 0.00 86 1015.9
20210730043040 62 296 0.0 1.0 0.00 0.00 0.00 86 1015.9
20210730041610 62 271 0.0 4.0 0.00 0.00 0.00 86 1015.8
20210730040158 62 271 0.0 6.0 0.00 0.00 0.00 86 1015.8
20210730034553 62 272 0.0 1.0 0.00 0.00 0.00 86 1015.8
20210730033121 62 248 0.0 5.0 0.00 0.00 0.00 85 1015.8
20210730031655 62 257 0.0 8.0 0.00 0.00 0.00 85 1015.9
20210730030251 62 187 0.0 7.0 0.00 0.00 0.00 85 1015.8
20210730024549 62 310 0.0 3.0 0.00 0.00 0.00 85 1015.8
20210730023152 62 205 0.0 5.0 0.00 0.00 0.00 85 1015.7
20210730021542 62 320 0.0 4.0 0.00 0.00 0.00 85 1015.8
20210730020057 62 260 0.0 0.0 0.00 0.00 0.00 85 1016.0
20210730014603 62 313 0.0 6.0 0.00 0.00 0.00 84 1016.0
20210730013109 62 319 1.0 9.0 0.00 0.00 0.00 84 1015.9
20210730011552 62 322 1.0 9.0 0.00 0.00 0.00 84 1015.9
20210730010103 62 355 1.0 7.0 0.00 0.00 0.00 84 1016.2
20210730004530 62 321 1.0 9.0 0.00 0.00 0.00 84 1016.3
20210730003034 62 257 0.0 4.0 0.00 0.00 0.00 85 1016.4
20210730001527 61 287 0.0 5.0 0.00 0.00 0.00 84 1016.3
20210730000134 61 296 0.0 5.0 0.00 0.00 0.00 85 1016.2
20210729234536 60 306 0.0 5.0 0.00 0.00 0.00 85 1016.4
20210729233055 60 153 0.0 0.0 0.00 0.00 0.00 85 1016.2
20210729231529 60 206 0.0 0.0 0.00 0.00 0.00 84 1016.2
20210729230029 61 307 0.0 4.0 0.00 0.00 0.00 84 1016.2
20210729224538 61 278 0.0 8.0 0.00 0.00 0.00 85 1016.2
20210729223031 60 294 0.0 1.0 0.00 0.00 0.00 85 1016.1
20210729221522 59 296 0.0 0.0 0.00 0.00 0.00 86 1016.2
20210729220023 59 212 0.0 0.0 0.00 0.00 0.00 85 1016.2
20210729214546 59 341 0.0 0.0 0.00 0.00 0.00 84 1016.3
20210729213013 59 195 0.0 0.0 0.00 0.00 0.00 84 1016.4
20210729211518 60 195 0.0 0.0 0.00 0.00 0.00 83 1016.3
20210729210016 60 208 0.0 0.0 0.00 0.00 0.00 82 1016.2
20210729204524 61 246 0.0 0.0 0.00 0.00 0.00 81 1016.0
20210729203021 62 323 0.0 1.0 0.00 0.00 0.00 80 1015.8
20210729201516 62 238 0.0 0.0 0.00 0.00 0.00 79 1015.7
20210729200004 63 168 0.0 0.0 0.00 0.00 0.00 78 1015.7
20210729194501 64 270 0.0 0.0 0.00 0.00 0.00 77 1015.5
20210729193141 65 233 0.0 0.0 0.00 0.00 0.00 75 1015.5
20210729190212 67 221 0.0 0.0 0.00 0.00 0.00 73 1015.3
20210729184628 68 242 0.0 1.0 0.00 0.00 0.00 71 1015.2
20210729183134 70 285 0.0 1.0 0.00 0.00 0.00 68 1015.2
20210729181801 70 315 0.0 1.0 0.00 0.00 0.00 67 1015.0
20210729180202 72 254 0.0 5.0 0.00 0.00 0.00 66 1014.8
20210729174627 73 321 0.0 3.0 0.00 0.00 0.00 63 1014.7
20210729173241 75 346 0.0 3.0 0.00 0.00 0.00 63 1014.6
20210729171707 77 348 0.0 3.0 0.00 0.00 0.00 60 1014.7
20210729170338 78 269 0.0 6.0 0.00 0.00 0.00 58 1014.8
20210729164646 79 235 0.0 1.0 0.00 0.00 0.00 59 1014.7
20210729163156 79 318 0.0 2.0 0.00 0.00 0.00 56 1014.7
20210729161725 80 271 0.0 6.0 0.00 0.00 0.00 57 1014.6
20210729160241 80 257 0.0 0.0 0.00 0.00 0.00 56 1014.5
20210729154704 80 278 0.0 7.0 0.00 0.00 0.00 55 1014.6
20210729153152 80 274 0.0 0.0 0.00 0.00 0.00 59 1014.7
20210729151746 80 263 0.0 3.0 0.00 0.00 0.00 54 1014.7
20210729150233 80 291 0.0 8.0 0.00 0.00 0.00 55 1014.7
20210729144839 80 282 0.0 0.0 0.00 0.00 0.00 53 1014.7